Year,Month,Day,Hour,Minute,Value (Times are PST for insolation in W/m^2)
2019,11,04,00,00,0.00
2019,11,04,00,01,0.00
2019,11,04,00,02,0.00
2019,11,04,00,03,0.00
2019,11,04,00,04,0.00
2019,11,04,00,05,0.00
2019,11,04,00,06,0.00
2019,11,04,00,07,0.00
2019,11,04,00,08,0.00
2019,11,04,00,09,0.00
2019,11,04,00,10,0.00
2019,11,04,00,11,0.00
2019,11,04,00,12,0.00
2019,11,04,00,13,0.00
2019,11,04,00,14,0.00
2019,11,04,00,15,0.00
2019,11,04,00,16,0.00
2019,11,04,00,17,0.00
2019,11,04,00,18,0.00
2019,11,04,00,19,0.00
2019,11,04,00,20,0.00
2019,11,04,00,21,0.00
2019,11,04,00,22,0.00
2019,11,04,00,23,0.00
2019,11,04,00,24,0.00
2019,11,04,00,25,0.00
2019,11,04,00,26,0.00
2019,11,04,00,27,0.00
2019,11,04,00,28,0.00
2019,11,04,00,29,0.00
2019,11,04,00,30,0.00
2019,11,04,00,31,0.00
2019,11,04,00,32,0.00
2019,11,04,00,33,0.00
2019,11,04,00,34,0.00
2019,11,04,00,35,0.00
2019,11,04,00,36,0.00
2019,11,04,00,37,0.00
2019,11,04,00,38,0.00
2019,11,04,00,39,0.00
2019,11,04,00,40,0.00
2019,11,04,00,41,0.00
2019,11,04,00,42,0.00
2019,11,04,00,43,0.00
2019,11,04,00,44,0.00
2019,11,04,00,45,0.00
2019,11,04,00,46,0.00
2019,11,04,00,47,0.00
2019,11,04,00,48,0.00
2019,11,04,00,49,0.00
2019,11,04,00,50,0.00
2019,11,04,00,51,0.00
2019,11,04,00,52,0.00
2019,11,04,00,53,0.00
2019,11,04,00,54,0.00
2019,11,04,00,55,0.00
2019,11,04,00,56,0.00
2019,11,04,00,57,0.00
2019,11,04,00,58,0.00
2019,11,04,00,59,0.00
2019,11,04,01,00,0.00
2019,11,04,01,01,0.00
2019,11,04,01,02,0.00
2019,11,04,01,03,0.00
2019,11,04,01,04,0.00
2019,11,04,01,05,0.00
2019,11,04,01,06,0.00
2019,11,04,01,07,0.00
2019,11,04,01,08,0.00
2019,11,04,01,09,0.00
2019,11,04,01,10,0.00
2019,11,04,01,11,0.00
2019,11,04,01,12,0.00
2019,11,04,01,13,0.00
2019,11,04,01,14,0.00
2019,11,04,01,15,0.00
2019,11,04,01,16,0.00
2019,11,04,01,17,0.00
2019,11,04,01,18,0.00
2019,11,04,01,19,0.00
2019,11,04,01,20,0.00
2019,11,04,01,21,0.00
2019,11,04,01,22,0.00
2019,11,04,01,23,0.00
2019,11,04,01,24,0.00
2019,11,04,01,25,0.00
2019,11,04,01,26,0.00
2019,11,04,01,27,0.00
2019,11,04,01,28,0.00
2019,11,04,01,29,0.00
2019,11,04,01,30,0.00
2019,11,04,01,31,0.00
2019,11,04,01,32,0.00
2019,11,04,01,33,0.00
2019,11,04,01,34,0.00
2019,11,04,01,35,0.00
2019,11,04,01,36,0.00
2019,11,04,01,37,0.00
2019,11,04,01,38,0.00
2019,11,04,01,39,0.00
2019,11,04,01,40,0.00
2019,11,04,01,41,0.00
2019,11,04,01,42,0.00
2019,11,04,01,43,0.00
2019,11,04,01,44,0.00
2019,11,04,01,45,0.00
2019,11,04,01,46,0.00
2019,11,04,01,47,0.00
2019,11,04,01,48,0.00
2019,11,04,01,49,0.00
2019,11,04,01,50,0.00
2019,11,04,01,51,0.00
2019,11,04,01,52,0.00
2019,11,04,01,53,0.00
2019,11,04,01,54,0.00
2019,11,04,01,55,0.00
2019,11,04,01,56,0.00
2019,11,04,01,57,0.00
2019,11,04,01,58,0.00
2019,11,04,01,59,0.00
2019,11,04,02,00,0.00
2019,11,04,02,01,0.00
2019,11,04,02,02,0.00
2019,11,04,02,03,0.00
2019,11,04,02,04,0.00
2019,11,04,02,05,0.00
2019,11,04,02,06,0.00
2019,11,04,02,07,0.00
2019,11,04,02,08,0.00
2019,11,04,02,09,0.00
2019,11,04,02,10,0.00
2019,11,04,02,11,0.00
2019,11,04,02,12,0.00
2019,11,04,02,13,0.00
2019,11,04,02,14,0.00
2019,11,04,02,15,0.00
2019,11,04,02,16,0.00
2019,11,04,02,17,0.00
2019,11,04,02,18,0.00
2019,11,04,02,19,0.00
2019,11,04,02,20,0.00
2019,11,04,02,21,0.00
2019,11,04,02,22,0.00
2019,11,04,02,23,0.00
2019,11,04,02,24,0.00
2019,11,04,02,25,0.00
2019,11,04,02,26,0.00
2019,11,04,02,27,0.00
2019,11,04,02,28,0.00
2019,11,04,02,29,0.00
2019,11,04,02,30,0.00
2019,11,04,02,31,0.00
2019,11,04,02,32,0.00
2019,11,04,02,33,0.00
2019,11,04,02,34,0.00
2019,11,04,02,35,0.00
2019,11,04,02,36,0.00
2019,11,04,02,37,0.00
2019,11,04,02,38,0.00
2019,11,04,02,39,0.00
2019,11,04,02,40,0.00
2019,11,04,02,41,0.00
2019,11,04,02,42,0.00
2019,11,04,02,43,0.00
2019,11,04,02,44,0.00
2019,11,04,02,45,0.00
2019,11,04,02,46,0.00
2019,11,04,02,47,0.00
2019,11,04,02,48,0.00
2019,11,04,02,49,0.00
2019,11,04,02,50,0.00
2019,11,04,02,51,0.00
2019,11,04,02,52,0.00
2019,11,04,02,53,0.00
2019,11,04,02,54,0.00
2019,11,04,02,55,0.00
2019,11,04,02,56,0.00
2019,11,04,02,57,0.00
2019,11,04,02,58,0.00
2019,11,04,02,59,0.00
2019,11,04,03,00,0.00
2019,11,04,03,01,0.00
2019,11,04,03,02,0.00
2019,11,04,03,03,0.00
2019,11,04,03,04,0.00
2019,11,04,03,05,0.00
2019,11,04,03,06,0.00
2019,11,04,03,07,0.00
2019,11,04,03,08,0.00
2019,11,04,03,09,0.00
2019,11,04,03,10,0.00
2019,11,04,03,11,0.00
2019,11,04,03,12,0.00
2019,11,04,03,13,0.00
2019,11,04,03,14,0.00
2019,11,04,03,15,0.00
2019,11,04,03,16,0.00
2019,11,04,03,17,0.00
2019,11,04,03,18,0.00
2019,11,04,03,19,0.00
2019,11,04,03,20,0.00
2019,11,04,03,21,0.00
2019,11,04,03,22,0.00
2019,11,04,03,23,0.00
2019,11,04,03,24,0.00
2019,11,04,03,25,0.00
2019,11,04,03,26,0.00
2019,11,04,03,27,0.00
2019,11,04,03,28,0.00
2019,11,04,03,29,0.00
2019,11,04,03,30,0.00
2019,11,04,03,31,0.00
2019,11,04,03,32,0.00
2019,11,04,03,33,0.00
2019,11,04,03,34,0.00
2019,11,04,03,35,0.00
2019,11,04,03,36,0.00
2019,11,04,03,37,0.00
2019,11,04,03,38,0.00
2019,11,04,03,39,0.00
2019,11,04,03,40,0.00
2019,11,04,03,41,0.00
2019,11,04,03,42,0.00
2019,11,04,03,43,0.00
2019,11,04,03,44,0.00
2019,11,04,03,45,0.00
2019,11,04,03,46,0.00
2019,11,04,03,47,0.00
2019,11,04,03,48,0.00
2019,11,04,03,49,0.00
2019,11,04,03,50,0.00
2019,11,04,03,51,0.00
2019,11,04,03,52,0.00
2019,11,04,03,53,0.00
2019,11,04,03,54,0.00
2019,11,04,03,55,0.00
2019,11,04,03,56,0.00
2019,11,04,03,57,0.00
2019,11,04,03,58,0.00
2019,11,04,03,59,0.00
2019,11,04,04,00,0.00
2019,11,04,04,01,0.00
2019,11,04,04,02,0.00
2019,11,04,04,03,0.00
2019,11,04,04,04,0.00
2019,11,04,04,05,0.00
2019,11,04,04,06,0.00
2019,11,04,04,07,0.00
2019,11,04,04,08,0.00
2019,11,04,04,09,0.00
2019,11,04,04,10,0.00
2019,11,04,04,11,0.00
2019,11,04,04,12,0.00
2019,11,04,04,13,0.00
2019,11,04,04,14,0.00
2019,11,04,04,15,0.00
2019,11,04,04,16,0.00
2019,11,04,04,17,0.00
2019,11,04,04,18,0.00
2019,11,04,04,19,0.00
2019,11,04,04,20,0.00
2019,11,04,04,21,0.00
2019,11,04,04,22,0.00
2019,11,04,04,23,0.00
2019,11,04,04,24,0.00
2019,11,04,04,25,0.00
2019,11,04,04,26,0.00
2019,11,04,04,27,0.00
2019,11,04,04,28,0.00
2019,11,04,04,29,0.00
2019,11,04,04,30,0.00
2019,11,04,04,31,0.00
2019,11,04,04,32,0.00
2019,11,04,04,33,0.00
2019,11,04,04,34,0.00
2019,11,04,04,35,0.00
2019,11,04,04,36,0.00
2019,11,04,04,37,0.00
2019,11,04,04,38,0.00
2019,11,04,04,39,0.00
2019,11,04,04,40,0.00
2019,11,04,04,41,0.00
2019,11,04,04,42,0.00
2019,11,04,04,43,0.00
2019,11,04,04,44,0.00
2019,11,04,04,45,0.00
2019,11,04,04,46,0.00
2019,11,04,04,47,0.00
2019,11,04,04,48,0.00
2019,11,04,04,49,0.00
2019,11,04,04,50,0.00
2019,11,04,04,51,0.00
2019,11,04,04,52,0.00
2019,11,04,04,53,0.00
2019,11,04,04,54,0.00
2019,11,04,04,55,0.00
2019,11,04,04,56,0.00
2019,11,04,04,57,0.00
2019,11,04,04,58,0.00
2019,11,04,04,59,0.00
2019,11,04,05,00,0.00
2019,11,04,05,01,0.00
2019,11,04,05,02,0.00
2019,11,04,05,03,0.00
2019,11,04,05,04,0.00
2019,11,04,05,05,0.00
2019,11,04,05,06,0.00
2019,11,04,05,07,0.00
2019,11,04,05,08,0.00
2019,11,04,05,09,0.00
2019,11,04,05,10,0.00
2019,11,04,05,11,0.00
2019,11,04,05,12,0.00
2019,11,04,05,13,0.00
2019,11,04,05,14,0.00
2019,11,04,05,15,0.00
2019,11,04,05,16,0.00
2019,11,04,05,17,0.00
2019,11,04,05,18,0.00
2019,11,04,05,19,0.00
2019,11,04,05,20,0.00
2019,11,04,05,21,0.00
2019,11,04,05,22,0.00
2019,11,04,05,23,0.00
2019,11,04,05,24,0.00
2019,11,04,05,25,0.00
2019,11,04,05,26,0.00
2019,11,04,05,27,0.00
2019,11,04,05,28,0.00
2019,11,04,05,29,0.00
2019,11,04,05,30,0.00
2019,11,04,05,31,0.00
2019,11,04,05,32,0.00
2019,11,04,05,33,0.00
2019,11,04,05,34,0.00
2019,11,04,05,35,0.00
2019,11,04,05,36,0.00
2019,11,04,05,37,0.00
2019,11,04,05,38,0.00
2019,11,04,05,39,0.00
2019,11,04,05,40,0.00
2019,11,04,05,41,0.00
2019,11,04,05,42,0.00
2019,11,04,05,43,0.00
2019,11,04,05,44,0.00
2019,11,04,05,45,0.00
2019,11,04,05,46,0.00
2019,11,04,05,47,0.00
2019,11,04,05,48,0.00
2019,11,04,05,49,0.00
2019,11,04,05,50,0.00
2019,11,04,05,51,0.00
2019,11,04,05,52,0.00
2019,11,04,05,53,0.00
2019,11,04,05,54,0.00
2019,11,04,05,55,0.00
2019,11,04,05,56,0.00
2019,11,04,05,57,0.00
2019,11,04,05,58,0.00
2019,11,04,05,59,0.00
2019,11,04,06,00,0.00
2019,11,04,06,01,0.00
2019,11,04,06,02,0.00
2019,11,04,06,03,0.00
2019,11,04,06,04,0.00
2019,11,04,06,05,0.00
2019,11,04,06,06,0.00
2019,11,04,06,07,0.00
2019,11,04,06,08,0.00
2019,11,04,06,09,0.00
2019,11,04,06,10,0.00
2019,11,04,06,11,0.00
2019,11,04,06,12,0.00
2019,11,04,06,13,0.00
2019,11,04,06,14,0.00
2019,11,04,06,15,0.00
2019,11,04,06,16,0.00
2019,11,04,06,17,0.00
2019,11,04,06,18,0.00
2019,11,04,06,19,0.00
2019,11,04,06,20,0.00
2019,11,04,06,21,0.00
2019,11,04,06,22,0.00
2019,11,04,06,23,0.00
2019,11,04,06,24,0.00
2019,11,04,06,25,0.00
2019,11,04,06,26,0.00
2019,11,04,06,27,0.00
2019,11,04,06,28,0.00
2019,11,04,06,29,0.00
2019,11,04,06,30,0.00
2019,11,04,06,31,0.00
2019,11,04,06,32,0.00
2019,11,04,06,33,0.00
2019,11,04,06,34,0.00
2019,11,04,06,35,0.00
2019,11,04,06,36,0.00
2019,11,04,06,37,0.00
2019,11,04,06,38,0.00
2019,11,04,06,39,0.00
2019,11,04,06,40,0.00
2019,11,04,06,41,0.00
2019,11,04,06,42,0.00
2019,11,04,06,43,0.00
2019,11,04,06,44,0.00
2019,11,04,06,45,0.00
2019,11,04,06,46,0.00
2019,11,04,06,47,0.00
2019,11,04,06,48,0.00
2019,11,04,06,49,0.00
2019,11,04,06,50,0.00
2019,11,04,06,51,0.00
2019,11,04,06,52,0.00
2019,11,04,06,53,0.00
2019,11,04,06,54,0.00
2019,11,04,06,55,0.00
2019,11,04,06,56,0.00
2019,11,04,06,57,0.00
2019,11,04,06,58,0.00
2019,11,04,06,59,0.00
2019,11,04,07,00,0.00
2019,11,04,07,01,0.00
2019,11,04,07,02,0.00
2019,11,04,07,03,0.00
2019,11,04,07,04,0.00
2019,11,04,07,05,0.00
2019,11,04,07,06,0.00
2019,11,04,07,07,0.00
2019,11,04,07,08,0.00
2019,11,04,07,09,0.00
2019,11,04,07,10,0.00
2019,11,04,07,11,0.00
2019,11,04,07,12,0.00
2019,11,04,07,13,0.00
2019,11,04,07,14,0.00
2019,11,04,07,15,3.40
2019,11,04,07,16,5.00
2019,11,04,07,17,5.10
2019,11,04,07,18,7.00
2019,11,04,07,19,7.00
2019,11,04,07,20,7.70
2019,11,04,07,21,9.00
2019,11,04,07,22,10.10
2019,11,04,07,23,11.00
2019,11,04,07,24,11.70
2019,11,04,07,25,12.00
2019,11,04,07,26,12.00
2019,11,04,07,27,12.00
2019,11,04,07,28,12.00
2019,11,04,07,29,12.00
2019,11,04,07,30,12.00
2019,11,04,07,31,12.00
2019,11,04,07,32,12.00
2019,11,04,07,33,13.50
2019,11,04,07,34,14.00
2019,11,04,07,35,15.90
2019,11,04,07,36,16.00
2019,11,04,07,37,16.00
2019,11,04,07,38,16.00
2019,11,04,07,39,17.00
2019,11,04,07,40,18.60
2019,11,04,07,41,19.00
2019,11,04,07,42,20.70
2019,11,04,07,43,21.00
2019,11,04,07,44,23.30
2019,11,04,07,45,25.00
2019,11,04,07,46,25.30
2019,11,04,07,47,26.90
2019,11,04,07,48,29.00
2019,11,04,07,49,31.30
2019,11,04,07,50,32.70
2019,11,04,07,51,33.00
2019,11,04,07,52,33.10
2019,11,04,07,53,35.00
2019,11,04,07,54,35.60
2019,11,04,07,55,37.00
2019,11,04,07,56,37.90
2019,11,04,07,57,39.00
2019,11,04,07,58,39.70
2019,11,04,07,59,43.20
2019,11,04,08,00,52.10
2019,11,04,08,01,47.80
2019,11,04,08,02,38.60
2019,11,04,08,03,32.10
2019,11,04,08,04,29.20
2019,11,04,08,05,28.00
2019,11,04,08,06,29.30
2019,11,04,08,07,33.60
2019,11,04,08,08,40.70
2019,11,04,08,09,48.90
2019,11,04,08,10,54.90
2019,11,04,08,11,61.20
2019,11,04,08,12,67.40
2019,11,04,08,13,74.40
2019,11,04,08,14,80.40
2019,11,04,08,15,95.70
2019,11,04,08,16,98.10
2019,11,04,08,17,97.00
2019,11,04,08,18,97.00
2019,11,04,08,19,102.00
2019,11,04,08,20,123.00
2019,11,04,08,21,129.00
2019,11,04,08,22,137.00
2019,11,04,08,23,135.90
2019,11,04,08,24,134.30
2019,11,04,08,25,134.00
2019,11,04,08,26,128.50
2019,11,04,08,27,113.90
2019,11,04,08,28,118.20
2019,11,04,08,29,130.30
2019,11,04,08,30,120.80
2019,11,04,08,31,142.00
2019,11,04,08,32,161.30
2019,11,04,08,33,123.30
2019,11,04,08,34,117.30
2019,11,04,08,35,135.10
2019,11,04,08,36,113.30
2019,11,04,08,37,99.90
2019,11,04,08,38,95.80
2019,11,04,08,39,97.40
2019,11,04,08,40,98.00
2019,11,04,08,41,100.70
2019,11,04,08,42,104.40
2019,11,04,08,43,106.90
2019,11,04,08,44,110.40
2019,11,04,08,45,139.00
2019,11,04,08,46,138.40
2019,11,04,08,47,171.30
2019,11,04,08,48,209.00
2019,11,04,08,49,160.90
2019,11,04,08,50,126.00
2019,11,04,08,51,123.00
2019,11,04,08,52,126.30
2019,11,04,08,53,116.30
2019,11,04,08,54,106.60
2019,11,04,08,55,96.60
2019,11,04,08,56,87.80
2019,11,04,08,57,83.40
2019,11,04,08,58,85.00
2019,11,04,08,59,160.40
2019,11,04,09,00,132.70
2019,11,04,09,01,202.10
2019,11,04,09,02,206.20
2019,11,04,09,03,207.60
2019,11,04,09,04,209.80
2019,11,04,09,05,212.50
2019,11,04,09,06,215.10
2019,11,04,09,07,217.40
2019,11,04,09,08,222.00
2019,11,04,09,09,226.80
2019,11,04,09,10,230.00
2019,11,04,09,11,231.50
2019,11,04,09,12,236.00
2019,11,04,09,13,236.00
2019,11,04,09,14,239.70
2019,11,04,09,15,241.70
2019,11,04,09,16,248.50
2019,11,04,09,17,257.00
2019,11,04,09,18,249.50
2019,11,04,09,19,236.60
2019,11,04,09,20,264.00
2019,11,04,09,21,266.80
2019,11,04,09,22,266.70
2019,11,04,09,23,260.80
2019,11,04,09,24,260.00
2019,11,04,09,25,258.40
2019,11,04,09,26,255.30
2019,11,04,09,27,253.00
2019,11,04,09,28,252.40
2019,11,04,09,29,251.40
2019,11,04,09,30,255.90
2019,11,04,09,31,260.90
2019,11,04,09,32,264.60
2019,11,04,09,33,266.40
2019,11,04,09,34,272.70
2019,11,04,09,35,277.40
2019,11,04,09,36,270.50
2019,11,04,09,37,284.70
2019,11,04,09,38,299.70
2019,11,04,09,39,300.10
2019,11,04,09,40,282.60
2019,11,04,09,41,254.10
2019,11,04,09,42,272.70
2019,11,04,09,43,281.00
2019,11,04,09,44,281.00
2019,11,04,09,45,281.00
2019,11,04,09,46,281.00
2019,11,04,09,47,281.00
2019,11,04,09,48,303.90
2019,11,04,09,49,330.90
2019,11,04,09,50,325.40
2019,11,04,09,51,327.90
2019,11,04,09,52,329.00
2019,11,04,09,53,247.20
2019,11,04,09,54,268.50
2019,11,04,09,55,243.00
2019,11,04,09,56,283.00
2019,11,04,09,57,314.70
2019,11,04,09,58,234.00
2019,11,04,09,59,179.00
2019,11,04,10,00,177.90
2019,11,04,10,01,260.60
2019,11,04,10,02,269.00
2019,11,04,10,03,299.50
2019,11,04,10,04,342.40
2019,11,04,10,05,339.20
2019,11,04,10,06,303.50
2019,11,04,10,07,249.70
2019,11,04,10,08,223.50
2019,11,04,10,09,273.40
2019,11,04,10,10,321.90
2019,11,04,10,11,301.00
2019,11,04,10,12,262.20
2019,11,04,10,13,269.40
2019,11,04,10,14,291.00
2019,11,04,10,15,288.00
2019,11,04,10,16,380.10
2019,11,04,10,17,370.00
2019,11,04,10,18,321.70
2019,11,04,10,19,353.90
2019,11,04,10,20,361.50
2019,11,04,10,21,344.70
2019,11,04,10,22,388.00
2019,11,04,10,23,388.00
2019,11,04,10,24,320.80
2019,11,04,10,25,297.60
2019,11,04,10,26,353.00
2019,11,04,10,27,362.00
2019,11,04,10,28,362.00
2019,11,04,10,29,362.00
2019,11,04,10,30,362.00
2019,11,04,10,31,362.00
2019,11,04,10,32,242.50
2019,11,04,10,33,159.70
2019,11,04,10,34,153.60
2019,11,04,10,35,179.50
2019,11,04,10,36,210.90
2019,11,04,10,37,239.00
2019,11,04,10,38,219.40
2019,11,04,10,39,178.30
2019,11,04,10,40,173.00
2019,11,04,10,41,185.40
2019,11,04,10,42,211.20
2019,11,04,10,43,233.40
2019,11,04,10,44,227.40
2019,11,04,10,45,197.80
2019,11,04,10,46,182.50
2019,11,04,10,47,178.70
2019,11,04,10,48,185.50
2019,11,04,10,49,186.20
2019,11,04,10,50,177.10
2019,11,04,10,51,174.00
2019,11,04,10,52,180.30
2019,11,04,10,53,215.10
2019,11,04,10,54,235.50
2019,11,04,10,55,230.70
2019,11,04,10,56,215.00
2019,11,04,10,57,198.30
2019,11,04,10,58,188.50
2019,11,04,10,59,182.00
2019,11,04,11,00,186.70
2019,11,04,11,01,201.30
2019,11,04,11,02,206.90
2019,11,04,11,03,210.90
2019,11,04,11,04,219.40
2019,11,04,11,05,209.30
2019,11,04,11,06,201.70
2019,11,04,11,07,188.70
2019,11,04,11,08,181.40
2019,11,04,11,09,182.70
2019,11,04,11,10,186.20
2019,11,04,11,11,192.00
2019,11,04,11,12,200.00
2019,11,04,11,13,200.00
2019,11,04,11,14,200.00
2019,11,04,11,15,200.00
2019,11,04,11,16,221.40
2019,11,04,11,17,226.00
2019,11,04,11,18,218.10
2019,11,04,11,19,205.00
2019,11,04,11,20,191.20
2019,11,04,11,21,186.00
2019,11,04,11,22,182.00
2019,11,04,11,23,168.70
2019,11,04,11,24,152.70
2019,11,04,11,25,141.50
2019,11,04,11,26,134.80
2019,11,04,11,27,128.10
2019,11,04,11,28,121.70
2019,11,04,11,29,114.60
2019,11,04,11,30,111.00
2019,11,04,11,31,118.00
2019,11,04,11,32,136.20
2019,11,04,11,33,160.40
2019,11,04,11,34,217.90
2019,11,04,11,35,261.70
2019,11,04,11,36,256.70
2019,11,04,11,37,291.00
2019,11,04,11,38,283.30
2019,11,04,11,39,291.10
2019,11,04,11,40,330.00
2019,11,04,11,41,282.50
2019,11,04,11,42,268.20
2019,11,04,11,43,273.70
2019,11,04,11,44,288.00
2019,11,04,11,45,255.20
2019,11,04,11,46,192.00
2019,11,04,11,47,168.60
2019,11,04,11,48,163.00
2019,11,04,11,49,172.30
2019,11,04,11,50,187.80
2019,11,04,11,51,190.50
2019,11,04,11,52,181.90
2019,11,04,11,53,178.50
2019,11,04,11,54,185.00
2019,11,04,11,55,197.30
2019,11,04,11,56,210.80
2019,11,04,11,57,225.00
2019,11,04,11,58,226.60
2019,11,04,11,59,214.60
2019,11,04,12,00,212.70
2019,11,04,12,01,206.40
2019,11,04,12,02,195.50
2019,11,04,12,03,199.00
2019,11,04,12,04,197.60
2019,11,04,12,05,192.00
2019,11,04,12,06,188.00
2019,11,04,12,07,193.90
2019,11,04,12,08,207.50
2019,11,04,12,09,211.00
2019,11,04,12,10,233.80
2019,11,04,12,11,229.80
2019,11,04,12,12,215.30
2019,11,04,12,13,200.90
2019,11,04,12,14,193.20
2019,11,04,12,15,189.10
2019,11,04,12,16,193.30
2019,11,04,12,17,192.60
2019,11,04,12,18,178.70
2019,11,04,12,19,163.30
2019,11,04,12,20,152.00
2019,11,04,12,21,147.40
2019,11,04,12,22,144.30
2019,11,04,12,23,143.00
2019,11,04,12,24,148.60
2019,11,04,12,25,152.50
2019,11,04,12,26,155.40
2019,11,04,12,27,163.40
2019,11,04,12,28,179.40
2019,11,04,12,29,188.00
2019,11,04,12,30,185.30
2019,11,04,12,31,180.10
2019,11,04,12,32,179.00
2019,11,04,12,33,187.00
2019,11,04,12,34,190.50
2019,11,04,12,35,166.90
2019,11,04,12,36,148.00
2019,11,04,12,37,162.20
2019,11,04,12,38,183.20
2019,11,04,12,39,215.10
2019,11,04,12,40,296.00
2019,11,04,12,41,321.20
2019,11,04,12,42,308.00
2019,11,04,12,43,504.40
2019,11,04,12,44,531.60
2019,11,04,12,45,510.00
2019,11,04,12,46,510.00
2019,11,04,12,47,536.70
2019,11,04,12,48,599.00
2019,11,04,12,49,402.10
2019,11,04,12,50,238.50
2019,11,04,12,51,231.90
2019,11,04,12,52,219.30
2019,11,04,12,53,214.20
2019,11,04,12,54,214.00
2019,11,04,12,55,214.00
2019,11,04,12,56,214.00
2019,11,04,12,57,214.00
2019,11,04,12,58,225.40
2019,11,04,12,59,234.00
2019,11,04,13,00,236.20
2019,11,04,13,01,274.80
2019,11,04,13,02,278.90
2019,11,04,13,03,276.00
2019,11,04,13,04,274.10
2019,11,04,13,05,284.10
2019,11,04,13,06,264.50
2019,11,04,13,07,272.50
2019,11,04,13,08,250.40
2019,11,04,13,09,249.30
2019,11,04,13,10,251.10
2019,11,04,13,11,215.70
2019,11,04,13,12,214.00
2019,11,04,13,13,214.00
2019,11,04,13,14,214.00
2019,11,04,13,15,214.00
2019,11,04,13,16,416.00
2019,11,04,13,17,517.00
2019,11,04,13,18,517.00
2019,11,04,13,19,501.40
2019,11,04,13,20,554.00
2019,11,04,13,21,570.00
2019,11,04,13,22,450.90
2019,11,04,13,23,304.00
2019,11,04,13,24,367.00
2019,11,04,13,25,399.00
2019,11,04,13,26,399.00
2019,11,04,13,27,250.50
2019,11,04,13,28,203.90
2019,11,04,13,29,184.80
2019,11,04,13,30,185.20
2019,11,04,13,31,203.20
2019,11,04,13,32,213.00
2019,11,04,13,33,213.00
2019,11,04,13,34,211.50
2019,11,04,13,35,195.60
2019,11,04,13,36,179.00
2019,11,04,13,37,183.80
2019,11,04,13,38,233.20
2019,11,04,13,39,264.70
2019,11,04,13,40,227.00
2019,11,04,13,41,263.00
2019,11,04,13,42,231.30
2019,11,04,13,43,209.30
2019,11,04,13,44,221.80
2019,11,04,13,45,226.90
2019,11,04,13,46,201.00
2019,11,04,13,47,186.00
2019,11,04,13,48,180.00
2019,11,04,13,49,169.10
2019,11,04,13,50,162.70
2019,11,04,13,51,156.20
2019,11,04,13,52,157.60
2019,11,04,13,53,163.00
2019,11,04,13,54,169.00
2019,11,04,13,55,168.00
2019,11,04,13,56,162.00
2019,11,04,13,57,152.40
2019,11,04,13,58,141.70
2019,11,04,13,59,132.10
2019,11,04,14,00,126.10
2019,11,04,14,01,123.30
2019,11,04,14,02,120.70
2019,11,04,14,03,117.20
2019,11,04,14,04,113.10
2019,11,04,14,05,109.40
2019,11,04,14,06,106.00
2019,11,04,14,07,103.10
2019,11,04,14,08,102.00
2019,11,04,14,09,102.00
2019,11,04,14,10,104.70
2019,11,04,14,11,104.60
2019,11,04,14,12,102.00
2019,11,04,14,13,102.70
2019,11,04,14,14,104.00
2019,11,04,14,15,102.90
2019,11,04,14,16,100.70
2019,11,04,14,17,98.60
2019,11,04,14,18,97.10
2019,11,04,14,19,93.10
2019,11,04,14,20,91.00
2019,11,04,14,21,91.00
2019,11,04,14,22,91.00
2019,11,04,14,23,91.00
2019,11,04,14,24,91.00
2019,11,04,14,25,91.00
2019,11,04,14,26,91.00
2019,11,04,14,27,91.00
2019,11,04,14,28,89.70
2019,11,04,14,29,87.00
2019,11,04,14,30,83.10
2019,11,04,14,31,79.30
2019,11,04,14,32,75.40
2019,11,04,14,33,72.70
2019,11,04,14,34,72.00
2019,11,04,14,35,70.40
2019,11,04,14,36,70.00
2019,11,04,14,37,70.00
2019,11,04,14,38,70.00
2019,11,04,14,39,70.00
2019,11,04,14,40,70.00
2019,11,04,14,41,70.00
2019,11,04,14,42,69.30
2019,11,04,14,43,69.00
2019,11,04,14,44,69.00
2019,11,04,14,45,69.10
2019,11,04,14,46,70.00
2019,11,04,14,47,70.00
2019,11,04,14,48,70.00
2019,11,04,14,49,69.50
2019,11,04,14,50,67.90
2019,11,04,14,51,67.00
2019,11,04,14,52,63.80
2019,11,04,14,53,62.10
2019,11,04,14,54,59.70
2019,11,04,14,55,58.00
2019,11,04,14,56,58.00
2019,11,04,14,57,57.10
2019,11,04,14,58,56.00
2019,11,04,14,59,56.00
2019,11,04,15,00,56.00
2019,11,04,15,01,56.00
2019,11,04,15,02,54.10
2019,11,04,15,03,53.80
2019,11,04,15,04,53.00
2019,11,04,15,05,53.00
2019,11,04,15,06,53.00
2019,11,04,15,07,53.60
2019,11,04,15,08,54.00
2019,11,04,15,09,55.50
2019,11,04,15,10,54.30
2019,11,04,15,11,53.90
2019,11,04,15,12,52.60
2019,11,04,15,13,50.40
2019,11,04,15,14,48.30
2019,11,04,15,15,47.00
2019,11,04,15,16,46.40
2019,11,04,15,17,44.50
2019,11,04,15,18,44.00
2019,11,04,15,19,42.10
2019,11,04,15,20,41.70
2019,11,04,15,21,40.00
2019,11,04,15,22,40.00
2019,11,04,15,23,41.00
2019,11,04,15,24,42.00
2019,11,04,15,25,43.30
2019,11,04,15,26,45.50
2019,11,04,15,27,46.00
2019,11,04,15,28,44.10
2019,11,04,15,29,44.00
2019,11,04,15,30,43.40
2019,11,04,15,31,42.00
2019,11,04,15,32,41.00
2019,11,04,15,33,39.40
2019,11,04,15,34,37.70
2019,11,04,15,35,37.00
2019,11,04,15,36,35.20
2019,11,04,15,37,33.00
2019,11,04,15,38,33.00
2019,11,04,15,39,32.70
2019,11,04,15,40,32.00
2019,11,04,15,41,30.90
2019,11,04,15,42,30.00
2019,11,04,15,43,30.00
2019,11,04,15,44,28.30
2019,11,04,15,45,27.90
2019,11,04,15,46,26.00
2019,11,04,15,47,26.00
2019,11,04,15,48,25.70
2019,11,04,15,49,25.00
2019,11,04,15,50,25.00
2019,11,04,15,51,23.70
2019,11,04,15,52,23.00
2019,11,04,15,53,21.30
2019,11,04,15,54,20.80
2019,11,04,15,55,19.00
2019,11,04,15,56,18.70
2019,11,04,15,57,18.00
2019,11,04,15,58,17.00
2019,11,04,15,59,16.00
2019,11,04,16,00,14.60
2019,11,04,16,01,14.00
2019,11,04,16,02,12.20
2019,11,04,16,03,12.00
2019,11,04,16,04,12.00
2019,11,04,16,05,12.00
2019,11,04,16,06,12.00
2019,11,04,16,07,12.00
2019,11,04,16,08,11.40
2019,11,04,16,09,11.00
2019,11,04,16,10,11.00
2019,11,04,16,11,11.00
2019,11,04,16,12,10.60
2019,11,04,16,13,8.40
2019,11,04,16,14,7.00
2019,11,04,16,15,8.00
2019,11,04,16,16,9.00
2019,11,04,16,17,9.00
2019,11,04,16,18,9.00
2019,11,04,16,19,9.00
2019,11,04,16,20,9.00
2019,11,04,16,21,9.00
2019,11,04,16,22,8.40
2019,11,04,16,23,7.00
2019,11,04,16,24,7.00
2019,11,04,16,25,7.00
2019,11,04,16,26,7.00
2019,11,04,16,27,7.00
2019,11,04,16,28,6.90
2019,11,04,16,29,5.00
2019,11,04,16,30,5.00
2019,11,04,16,31,5.00
2019,11,04,16,32,5.00
2019,11,04,16,33,5.00
2019,11,04,16,34,1.60
2019,11,04,16,35,0.00
2019,11,04,16,36,0.00
2019,11,04,16,37,0.00
2019,11,04,16,38,0.00
2019,11,04,16,39,0.00
2019,11,04,16,40,0.00
2019,11,04,16,41,0.00
2019,11,04,16,42,0.00
2019,11,04,16,43,0.00
2019,11,04,16,44,0.00
2019,11,04,16,45,0.00
2019,11,04,16,46,0.00
2019,11,04,16,47,0.00
2019,11,04,16,48,0.00
2019,11,04,16,49,0.00
2019,11,04,16,50,0.00
2019,11,04,16,51,0.00
2019,11,04,16,52,0.00
2019,11,04,16,53,0.00
2019,11,04,16,54,0.00
2019,11,04,16,55,0.00
2019,11,04,16,56,0.00
2019,11,04,16,57,0.00
2019,11,04,16,58,0.00
2019,11,04,16,59,0.00
2019,11,04,17,00,0.00
2019,11,04,17,01,0.00
2019,11,04,17,02,0.00
2019,11,04,17,03,0.00
2019,11,04,17,04,0.00
2019,11,04,17,05,0.00
2019,11,04,17,06,0.00
2019,11,04,17,07,0.00
2019,11,04,17,08,0.00
2019,11,04,17,09,0.00
2019,11,04,17,10,0.00
2019,11,04,17,11,0.00
2019,11,04,17,12,0.00
2019,11,04,17,13,0.00
2019,11,04,17,14,0.00
2019,11,04,17,15,0.00
2019,11,04,17,16,0.00
2019,11,04,17,17,0.00
2019,11,04,17,18,0.00
2019,11,04,17,19,0.00
2019,11,04,17,20,0.00
2019,11,04,17,21,0.00
2019,11,04,17,22,0.00
2019,11,04,17,23,0.00
2019,11,04,17,24,0.00
2019,11,04,17,25,0.00
2019,11,04,17,26,0.00